Location: Rowland
(34.5359°N, 79.2929°W)
Time: 16:08:11
(UTC+00:00)

Vanguard 1 - All Passes

Search period start: 26 September 2022 00:00
Search period end: 06 October 2022 00:00
Orbit: 649 x 3832 km, 34.2° (Epoch: 25 September)

Date Brightness Start Highest point End Pass type
(mag) Time Alt. Az. Time Alt. Az. Time Alt. Az.
26 Sep - 00:51:12 10° W 00:57:14 73° SSW 01:01:39 10° ESE visible
26 Sep - 03:13:29 10° WSW 03:16:42 19° SSW 03:19:59 10° SSE visible
26 Sep - 17:59:29 10° SSW 18:13:33 29° SSE 18:22:37 10° E daylight
26 Sep - 20:22:41 10° SW 20:36:21 59° SSE 20:43:39 10° E daylight
26 Sep - 22:48:22 10° W 22:57:37 88° S 23:02:58 10° E daylight
27 Sep - 01:12:08 10° W 01:17:49 57° SSW 01:22:09 10° ESE visible
27 Sep - 03:35:35 10° SW 03:37:11 12° SSW 03:38:48 10° S night (unlit)
27 Sep - 16:03:02 10° SSE 16:10:24 13° SE 16:16:41 10° ESE daylight
27 Sep - 18:19:03 10° SSW 18:34:36 37° SSE 18:43:58 10° E daylight
27 Sep - 20:43:40 10° WSW 20:57:11 69° SSE 21:04:18 10° E daylight
27 Sep - 23:09:35 10° W 23:18:22 88° S 23:23:33 10° E daylight
28 Sep - 01:33:08 10° W 01:38:20 42° SSW 01:42:30 10° SE visible
28 Sep - 16:19:14 10° S 16:31:37 19° SE 16:41:02 10° ESE daylight
28 Sep - 18:39:07 10° SW 18:55:37 46° SSE 19:05:00 10° E daylight
28 Sep - 21:04:52 10° WSW 21:18:01 78° SSE 21:24:55 10° E daylight
28 Sep - 23:30:46 10° W 23:39:06 84° S 23:44:08 10° E visible
29 Sep - 01:54:14 10° W 01:58:46 28° SSW 02:02:36 10° SSE visible
29 Sep - 16:37:23 10° SSW 16:52:45 26° SSE 17:03:32 10° E daylight
29 Sep - 18:59:37 10° SW 19:16:34 55° SSE 19:25:51 10° E daylight
29 Sep - 21:26:12 10° W 21:38:51 85° S 21:45:30 10° E daylight
29 Sep - 23:51:54 10° W 23:59:46 74° SSW 00:04:40 10° ESE visible
30 Sep - 02:15:39 10° W 02:19:08 18° SW 02:22:14 10° S visible
30 Sep - 14:48:22 10° SE 14:49:01 10° SE 14:49:39 10° SE daylight
30 Sep - 16:56:27 10° SSW 17:13:51 34° SSE 17:25:16 10° E daylight
30 Sep - 19:20:27 10° WSW 19:37:31 65° SSE 19:46:34 10° E daylight
30 Sep - 21:47:36 10° W 21:59:41 89° S 22:06:06 10° E daylight
01 Oct - 00:13:00 10° W 00:20:22 59° SSW 00:25:06 10° ESE visible
01 Oct - 02:38:12 10° SW 02:39:27 11° SW 02:40:38 10° SSW visible
01 Oct - 14:58:59 10° S 15:10:13 16° SE 15:19:43 10° ESE daylight
01 Oct - 17:16:08 10° SSW 17:34:54 42° SSE 17:46:32 10° E daylight
01 Oct - 19:41:34 10° WSW 19:58:27 74° SSE 20:07:15 10° E daylight
01 Oct - 22:08:59 10° W 22:20:30 88° S 22:26:41 10° E daylight
02 Oct - 00:34:08 10° W 00:40:52 44° SSW 00:45:24 10° SE visible
02 Oct - 15:16:02 10° S 15:31:19 23° SE 15:43:19 10° E daylight
02 Oct - 17:36:18 10° SW 17:55:56 51° SSE 18:07:33 10° E daylight
02 Oct - 20:02:54 10° WSW 20:19:23 81° SSE 20:27:53 10° E daylight
02 Oct - 22:30:21 10° W 22:41:18 84° S 22:47:16 10° ESE daylight
03 Oct - 00:55:22 10° W 01:01:13 31° SW 01:05:25 10° SSE visible
03 Oct - 15:34:28 10° SSW 15:52:22 30° SE 16:05:37 10° E daylight
03 Oct - 17:56:52 10° SW 18:16:57 60° SSE 18:28:26 10° E daylight
03 Oct - 20:24:22 10° W 20:40:19 87° S 20:48:31 10° E daylight
03 Oct - 22:51:39 10° W 23:02:01 75° SSW 23:07:47 10° ESE daylight
04 Oct - 01:16:54 10° W 01:21:29 21° SW 01:25:04 10° S visible
04 Oct - 13:41:39 10° SSE 13:48:29 12° SE 13:54:55 10° ESE daylight
04 Oct - 15:53:40 10° SSW 16:13:24 38° SSE 16:27:18 10° E daylight
04 Oct - 18:17:46 10° WSW 18:37:58 69° SSE 18:49:11 10° E daylight
04 Oct - 20:45:55 10° W 21:01:16 89° S 21:09:08 10° E daylight
04 Oct - 23:12:55 10° W 23:22:39 62° SSW 23:28:12 10° ESE visible
05 Oct - 01:39:15 10° WSW 01:41:38 12° SW 01:43:45 10° SSW visible
05 Oct - 13:56:11 10° S 14:09:29 18° SE 14:21:16 10° ESE daylight
05 Oct - 16:13:25 10° SW 16:34:24 47° SSE 16:48:35 10° E daylight
05 Oct - 18:38:57 10° WSW 18:59:01 77° SSE 19:09:54 10° E daylight
05 Oct - 21:07:28 10° W 21:22:11 88° S 21:29:45 10° E daylight
05 Oct - 23:34:12 10° W 23:43:08 48° SSW 23:48:27 10° SE visible
